Regional Weather Roundup
Issued by NWS

Home | Current Version | Previous Version | Text Only | Print | Product List | Glossary Off
Versions: 1 2 3 4 5 6 7 8 9 10 11 12 13 14 15 16 17 18 19 20 21 22 23 24 25 26 27 28 29 30 31 32 33 34 35 36 37 38 39 40 41 42 43 44 45 46 47 48 49 50

000
ASUS45 KBOI 271810
RWRID
WEATHER ROUNDUP FOR IDAHO
NATIONAL WEATHER SERVICE BOISE ID
1200 PM MDT WED AUG 27 2014

NOTE: "FAIR" INDICATES FEW OR NO CLOUDS BELOW 12000 FEET
WITH NO SIGNIFICANT WEATHER AND/OR OBSTRUCTIONS TO VISIBILITY

IDZ012-014-271900-
SOUTHWEST IDAHO


CITY           SKY/WX    TMP DP  RH WIND       PRES   REMARKS
BOISE          SUNNY     81  44  27 CALM      30.15S
CALDWELL       SUNNY     77  46  33 CALM      30.16S
MOUNTAIN HOME  SUNNY     77  46  32 NE1       30.15F
$$

IDZ016-017-271900-
SOUTHCENTRAL IDAHO


CITY           SKY/WX    TMP DP  RH WIND       PRES   REMARKS
BURLEY         SUNNY     73  50  44 CALM      30.21S
JEROME         SUNNY     72  48  42 S5        30.22S
TWIN FALLS     SUNNY     76  48  37 CALM      30.21F
$$

IDZ019>023-271900-
SOUTHEAST IDAHO


CITY           SKY/WX    TMP DP  RH WIND       PRES   REMARKS
IDAHO FALLS    SUNNY     70  50  49 S12       30.22F
POCATELLO      MOSUNNY   72  51  47 W9        30.23F
REXBURG        SUNNY     68  49  50 SW8       30.23F
$$

IDZ006-010-011-018-031-032-271900-
CENTRAL IDAHO MOUNTAINS


CITY           SKY/WX    TMP DP  RH WIND       PRES   REMARKS
MCCALL         SUNNY     67  42  40 S3        30.23F
HAILEY         MOSUNNY   70  48  46 E10       30.26F
STANLEY          N/A     65  42  43 N6        30.32F
SALMON         SUNNY     64  46  52 N3        30.19F
CHALLIS        SUNNY     67  44  43 CALM      30.24F
$$

IDZ002-004-006-007-026-271900-
NORTHERN IDAHO


CITY           SKY/WX    TMP DP  RH WIND       PRES   REMARKS
LEWISTON       SUNNY     77  48  35 VRB3      30.05F
LOWELL           N/A     72  50  45 CALM      30.09F
COEUR D`ALENE  SUNNY     77  48  36 S9        30.06F
MULLAN PASS    SUNNY     64  39  39 CALM      30.26S
$$



USA.gov is the U.S. government's official web portal to all federal, state and local government web resources and services.